Location: NovaLab Observatory
(42.8167°N, 71.2500°W)
Time: 21:50:25
(UTC-04:00)

Daily predictions for brighter satellites

Satellite Brightness Start Highest point End
(mag) Time Altitude Azimuth Time Altitude Azimuth Time Altitude Azimuth
NOSS 3-1 (C) 4.2 20:53:05 10° S 20:58:02 29° ESE 21:03:23 10° NE
Cosmos 1777 Rocket 4.1 20:58:04 10° SSW 21:03:20 89° WNW 21:08:37 10° NNE
Cosmos 2360 Rocket 2.3 20:58:28 10° NNW 21:04:09 75° ENE 21:09:48 10° SSE
Cosmos 2151 3.4 21:01:04 10° SSE 21:05:02 43° E 21:09:01 10° NNE
Cosmos 1515 Rocket 3.9 21:01:05 10° NNW 21:05:31 71° W 21:09:53 10° S
SL-16 R/B 3.4 21:01:16 10° NW 21:06:34 41° WSW 21:11:50 10° S
Terra 4.0 21:06:59 10° ENE 21:08:34 12° ENE 21:10:09 10° NE
DELTA 2 R/B (1) 4.1 21:06:43 10° W 21:12:00 46° SSW 21:17:17 10° SE
Sich 1 4.4 21:12:07 10° SE 21:15:31 22° E 21:18:54 10° NE
Meteor 2-20 Rocket 4.5 21:09:35 10° S 21:15:43 74° E 21:21:51 10° NNE
USA 245 4.1 21:16:11 11° ESE 21:17:47 17° ENE 21:19:24 10° NNE
Cosmos 1908 3.5 21:14:51 10° NNW 21:18:45 74° W 21:22:39 10° S
Cosmos 1633 Rocket 4.4 21:15:42 10° SE 21:19:06 22° E 21:22:30 10° NE
Cosmos 2058 3.5 21:16:41 10° SSE 21:20:28 38° E 21:24:18 10° NNE
CZ-4 SHROUD 3.3 21:18:52 10° SSE 21:21:57 61° ENE 21:25:04 10° N
Cosmos 1151 Rocket 3.1 21:18:21 10° N 21:22:41 80° W 21:27:00 10° S
Cosmos 2266 Rocket 4.1 21:19:32 10° S 21:25:51 87° W 21:32:05 10° N
Cosmos 405 3.6 21:23:40 10° NNW 21:27:15 59° W 21:30:48 10° S
Cosmos 1674 3.1 21:24:03 10° SSW 21:27:52 67° W 21:31:44 10° N
Cosmos 2315 Rocket 4.0 21:24:27 10° N 21:30:40 71° E 21:36:50 10° SSE
CZ-4B R/B 3.9 21:26:15 10° NNE 21:31:19 46° E 21:36:17 10° S
H-2A R/B 3.6 21:27:24 10° ESE 21:31:36 24° ENE 21:35:53 10° NNE
Cosmos 2227 Rocket 3.7 21:29:45 12° SE 21:32:36 17° E 21:36:10 10° ENE
Cosmos 1680 Rocket 3.7 21:28:35 10° NNW 21:33:49 74° WSW 21:39:04 10° SSE
Cosmos 1805 Rocket 3.7 21:30:03 10° S 21:34:23 55° E 21:38:44 10° NNE
Cosmos 1300 2.9 21:36:03 10° N 21:39:51 56° E 21:42:49 16° SSE
YAOGAN 6 2.6 21:38:16 14° SSE 21:41:19 71° ENE 21:44:56 10° N
Tiangong 1 1.7 21:40:01 10° SW 21:42:50 32° SSE 21:45:04 14° E
SPOT 1/Viking Rocket 3.6 21:39:09 13° SSE 21:43:40 66° ENE 21:48:48 10° N
Cosmos 2333 Rocket 3.3 21:39:44 10° N 21:44:55 33° NE 21:49:17 14° ESE
SL-16 R/B 4.3 21:41:52 10° N 21:45:09 15° NE 21:48:25 10° E
Cosmos 1898 Rocket 3.7 21:42:42 10° S 21:47:38 48° ESE 21:52:39 10° NNE
H-2A R/B 3.7 21:46:59 10° SSW 21:51:03 33° W 21:55:09 10° NNW
Meteor 2-11 Rocket 4.5 21:45:15 10° N 21:51:25 73° E 21:56:41 14° SSE
Cosmos 1707 Rocket 3.5 21:47:55 10° N 21:52:18 81° E 21:55:47 16° S
Cosmos 2150 Rocket 4.2 21:49:32 10° S 21:54:52 59° ESE 22:00:15 10° NNE
COSMOS 2428 2.7 21:51:11 10° NNW 21:56:54 85° WSW 22:01:17 18° SSE
Cosmos 1666 Rocket 3.5 21:52:49 12° S 21:56:55 71° E 22:01:21 10° NNE
MetOp-A 4.4 21:51:56 10° S 21:57:11 67° WSW 22:02:32 10° NNW
SPOT 5 3.6 21:53:41 10° S 21:58:05 48° W 22:02:46 10° NNW
Cosmos 2297 Rocket 3.5 21:57:44 17° SE 21:59:33 20° E 22:03:34 10° NE
NOSS 3-1 (A) 3.4 21:55:52 10° SSW 22:01:39 65° ESE 22:08:06 10° NE
Cosmos 1455 3.6 21:59:12 10° NNE 22:02:20 24° ENE 22:03:46 19° ESE
BREEZE-M DEB (TANK) 3.5 22:00:40 10° NW 22:02:29 27° NNE 22:04:45 11° E
ARGOS 3.1 21:59:31 17° SSE 22:03:47 83° ENE 22:09:12 10° NNW
Cosmos 2219 Rocket 2.4 21:59:40 10° NNW 22:05:12 58° ENE 22:08:52 21° SE
Cosmos 1745 Rocket 4.2 22:02:35 17° SSE 22:07:17 52° E 22:13:15 10° NNE
Cosmos 1470 Rocket 4.1 22:08:35 24° SE 22:10:32 38° E 22:14:33 10° NNE
Cosmos 1933 Rocket 4.2 22:09:41 24° SE 22:11:45 39° E 22:15:55 10° NNE
NOSS 0 Rocket 4.1 22:11:18 10° NNW 22:17:26 67° ENE 22:21:19 23° SE
Cosmos 1869 4.4 22:15:37 10° NNE 22:19:16 31° ENE 22:20:38 25° ESE
Cosmos 1726 2.7 22:17:23 10° NNW 22:21:06 55° W 22:23:25 21° SSW
ATLAS 2AS CENTAUR R/B 3.3 22:18:20 15° S 22:24:08 42° ESE 22:31:32 10° NE
Cosmos 1980 3.9 22:18:33 10° NNW 22:24:09 59° ENE 22:27:20 26° SE
CZ-4C R/B 2.9 22:24:04 35° SSE 22:25:26 89° E 22:28:55 10° NNW
USA 32 4.0 22:20:26 10° N 22:25:43 87° W 22:29:09 22° S
Cosmos 292 Rocket 3.8 22:23:31 10° NNW 22:28:17 79° WSW 22:30:47 28° S
Landsat 7 3.8 22:27:03 27° SSE 22:29:43 89° W 22:34:30 10° NNW
Cosmos 2219 4.4 22:24:56 10° SW 22:30:26 45° WNW 22:35:57 10° NNE
ERBS 2.8 22:32:03 39° ESE 22:32:03 39° ESE 22:35:01 10° ENE
Cosmos 2237 Rocket 2.3 22:31:03 10° NNW 22:36:46 69° ENE 22:39:42 29° SE
Cosmos 1271 Rocket 3.2 22:34:34 10° NNW 22:38:20 54° W 22:40:05 28° SSW
ATLAS 3B R/B 3.4 22:32:36 10° NNW 22:39:25 46° NE 22:44:00 19° ESE
Meteor 2-10 4.3 22:33:57 10° NNW 22:39:41 79° W 22:43:05 26° S
Cosmos 2082 3.7 22:38:00 22° S 22:41:41 63° ESE 22:47:21 10° NNE
Cosmos 1703 3.7 22:41:15 23° SSW 22:43:32 58° W 22:47:25 10° N
Meteor 1-4 Rocket 3.6 22:40:18 10° NNW 22:43:50 41° W 22:45:29 25° SSW
Cosmos 2242 Rocket 4.4 22:39:51 10° NNW 22:44:09 47° W 22:46:44 22° SSW
Cosmos 1346 2.9 22:45:04 72° S 22:45:20 87° E 22:48:23 10° N
Terra 1.8 22:43:25 33° SSE 22:45:34 89° WSW 22:50:22 10° NNW
Cosmos 1937 Rocket 3.7 22:41:23 11° SSW 22:46:29 71° WNW 22:51:42 10° NNE
Cosmos 2360 Rocket 4.5 22:44:14 10° WNW 22:47:26 16° W 22:50:38 10° SW
NOSS 3-1 (C) 4.3 22:42:41 10° WSW 22:48:29 52° NW 22:54:57 10° NNE
Iridium 2 4.2 22:47:14 27° SSW 22:49:05 55° W 22:52:52 10° N
Spot 4 3.8 22:47:26 36° SSE 22:49:27 79° ENE 22:54:20 10° N
Cosmos 1862 Rocket 3.4 22:46:42 10° N 22:51:04 89° WSW 22:52:33 41° S
Lacrosse 4 Rocket 2.8 22:47:35 10° NNW 22:51:35 32° NE 22:53:24 24° E
CARTOSAT-1 3.7 22:51:08 36° S 22:52:48 69° WSW 22:57:07 10° NNW
FALCON 9 R/B 3.8 22:32:46 10° W 22:56:12 55° SSW 23:00:29 26° SE
Cosmos 990 Rocket 4.0 22:53:44 20° SSW 22:57:22 79° WNW 23:02:33 10° NNE
Cosmos 1626 2.3 23:01:02 43° SSW 23:02:08 68° W 23:05:53 10° N
OAO 2 Rocket 4.1 22:59:12 10° WSW 23:03:20 33° S 23:03:20 33° S
COSMOS 2455 3.1 23:01:28 10° NNW 23:07:29 63° ENE 23:10:13 33° SE
H-2A R/B 2.7 23:08:02 27° SSW 23:10:39 49° W 23:15:56 10° NNW
Cosmos 1269 Rocket 4.1 23:06:57 10° NNW 23:12:16 71° ENE 23:14:03 42° SE
Cosmos 2227 Rocket 2.4 23:11:30 16° SW 23:16:00 69° WNW 23:21:41 10° NNE
Cosmos 1933 3.2 23:14:23 10° N 23:18:27 77° E 23:18:58 65° SE
Tiangong 1 3.2 23:16:09 10° W 23:17:12 19° W 23:17:12 19° W
Cosmos 1869 Rocket 3.8 23:19:15 50° ESE 23:19:49 54° E 23:24:12 10° NNE
H-2A R/B 4.1 23:19:56 10° NE 23:22:52 21° E 23:22:52 21° E
BREEZE-M DEB (TANK) 4.2 23:13:23 10° WNW 23:25:47 53° N 23:29:10 12° E
NOSS 2-3 (C) 4.3 23:25:50 44° SE 23:26:08 44° ESE 23:31:24 10° NE
Cosmos 2333 Rocket 3.1 23:23:55 10° NW 23:29:15 40° WSW 23:31:18 30° SSW
Cosmos 389 Rocket 3.1 23:26:33 10° N 23:29:47 46° ENE 23:29:47 46° ENE
SL-16 R/B 2.2 23:24:28 10° NNW 23:30:12 82° ENE 23:32:01 45° SSE
SeaSat 1 2.7 23:29:32 41° ESE 23:31:03 60° ENE 23:35:56 10° NNW
ALOS 2 3.7 23:31:51 30° E 23:32:40 32° ENE 23:36:34 10° N
Cosmos 1125 Rocket 3.5 23:33:30 40° SSW 23:35:29 85° WNW 23:40:51 10° NNE
Cosmos 1048 Rocket 4.0 23:30:30 10° NNW 23:35:54 89° ENE 23:37:19 51° SSE
CZ-4B R/B 3.2 23:36:58 23° ENE 23:36:58 23° ENE 23:39:36 10° NNE
Cosmos 1455 4.0 23:34:58 10° NW 23:37:58 22° W 23:38:49 21° WSW
Cosmos 1340 Rocket 4.5 23:40:24 22° ENE 23:40:24 22° ENE 23:42:55 10° NE
Cosmos 2297 Rocket 2.6 23:39:29 22° SW 23:43:05 59° WNW 23:48:42 10° NNE
ASTEX 1 4.1 23:39:33 10° NNE 23:44:03 36° E 23:44:32 35° ESE
Okean 1-7 2.8 23:40:52 10° N 23:45:09 85° E 23:45:28 76° SSE
CZ-2C R/B 4.4 23:42:26 10° NE 23:45:39 16° E 23:45:59 16° E
NOSS 2-3 (D) 3.9 23:46:30 57° SSE 23:47:10 64° ESE 23:52:44 10° NE
Cosmos 2219 Rocket 3.9 23:44:39 10° NW 23:48:39 20° W 23:50:35 17° SW
Cosmos 1703 Rocket 4.0 23:47:48 10° NNW 23:52:01 49° W 23:52:36 46° WSW
